Regional Weather Roundup
Issued by NWS Jackson, KY

Home | Current Version | Previous Version | Text Only | Print | Product List | Glossary Off
Versions: 1 2 3 4 5 6 7 8 9 10 11 12 13 14 15 16 17 18 19 20 21 22 23 24 25 26 27 28 29 30 31 32 33 34 35 36 37 38 39 40 41 42 43 44 45 46 47

000
ASUS43 KJKL 040610
RWRJKL

EAST KENTUCKY HOURLY WEATHER ROUNDUP
NATIONAL WEATHER SERVICE JACKSON KY
100 AM EST WED MAR 04 2015

NOTE: "FAIR" INDICATES FEW OR NO CLOUDS BELOW 12,000 FEET WITH
NO SIGNIFICANT WEATHER AND/OR OBSTRUCTIONS TO VISIBILITY.

* THESE REPORTS ARE NOT UNDER NWS QUALITY CONTROL AND MAY NOT
  REPORT WEATHER SUCH AS PRECIPITATION AND FOG.

KYZ079-080-083-085-087-088-110-112-115-119-120-040700
...EASTERN KENTUCKY...

CITY           SKY/WX    TMP DP  RH WIND       PRES   REMARKS
JACKSON        RAIN      56  55  97 VRB6      29.84F FOG
6HR MIN TEMP:  56; 6HR MAX TEMP:  59; 6HR PCP:  0.20;

LONDON         CLOUDY    61  55  81 SW14G24   29.86F
6HR MIN TEMP:  57; 6HR MAX TEMP:  61; 6HR PCP:  0.44;

SOMERSET*      CLOUDY    54  54 100 S5        29.88S
MONTICELLO*    CLOUDY    64  60  87 SW20G26   29.89F
6HR MIN TEMP:  58; 6HR MAX TEMP:  64; 6HR PCP:  0.34;

MIDDLESBORO*   CLOUDY    53  53 100 S3        29.92F
6HR MIN TEMP:  40; 6HR MAX TEMP:  53;

HAZARD APT*    RAIN      57  57 100 SW9       29.86F
BLACK MTN*       N/A     48  48 100 S26         N/A
PIKEVILLE APT* RAIN      57  55  94 SW7       29.85S
BIG SANDY*     RAIN      58  57  98 SW9       29.84S
6HR MIN TEMP:  58; 6HR MAX TEMP:  63;

MOREHEAD APT*  HVY RAIN  50  48  93 CALM      29.87F
$$

KYZ035-036-041-042-044-050-067-078-099-040700
...CENTRAL KENTUCKY...

CITY           SKY/WX    TMP DP  RH WIND       PRES   REMARKS
MT STERLING*   LGT RAIN  50  50 100 NW9       29.87R
FLEMING/MASON* LGT RAIN  45  45 100 NW14G24   29.88S
DANVILLE*      HVY RAIN  50  50 100 N5        29.88R
RICHMOND*      CLOUDY    52  48  87 NW9       29.86R
LEXINGTON      RAIN      48  47  96 NW8       29.87R FOG
6HR MIN TEMP:  48; 6HR MAX TEMP:  61; 6HR PCP:  0.27;

FRANKFORT      RAIN      45  43  93 NW10      29.86F FOG
6HR MIN TEMP:  46; 6HR MAX TEMP:  60; 6HR PCP:  0.54;

$$

KYZ091>093-OHZ055-061-077-WVZ005-015-034-035-042-040700
...SOUTHERN OHIO/WEST VIRGINIA...

CITY           SKY/WX    TMP DP  RH WIND       PRES   REMARKS
COVINGTON      LGT RAIN  39  39 100 W5        29.85R FOG
COLUMBUS       LGT RAIN  37  36  93 NW7       29.84S WCI  32
DAYTON         LGT RAIN  37  35  92 W9        29.86F FOG     WCI  30
WILMINGTON     LGT RAIN  37  35  92 W10       29.84R FOG     WCI  30
HUNTINGTON     HVY RAIN  52  51  97 CALM      29.83S FOG
CHARLESTON     LGT RAIN  56  54  93 VRB5      29.81S FOG
PINEVILLE*     SNOW      42  42 100 MISG      29.92F VSB 1/2
BECKLEY        RAIN      50  49  96 SW13      29.87F FOG
BLUEFIELD      CLOUDY    58  51  78 W17G30    29.90F
$$

VAZ002-007-008-TNZ017-027-036-066-071-040700
...SOUTHWEST VIRGINIA/EAST TENNESSEE...

CITY           SKY/WX    TMP DP  RH WIND       PRES   REMARKS
WISE*          FOG       48  48 100 SW20G25   29.92F VSB<1/4
JONESVILLE*    FOG       36  36 100 CALM      29.98F VSB 1/4
ABINGDON*      CLOUDY    44  44 100 CALM      29.95F FOG
BRISTOL        FOG       46  46 100 SE3       29.95F VSB 1
KNOXVILLE      MOCLDY    51  50  96 W6        29.94F FOG
OAK RIDGE      LGT RAIN  54  53  97 W6        29.96F FOG
CROSSVILLE     CLOUDY    58  56  93 S12G22    29.93F
NASHVILLE      CLOUDY    64  62  93 SW8       29.88R
$$

...KEY TO REMARKS...
VSB - VISIBILITY IN MILES
WCI - WIND CHILL INDEX
HX  - HEAT INDEX

$$


USA.gov is the U.S. government's official web portal to all federal, state and local government web resources and services.